• Processing (Info)

  • MPEC 2016-N53 : 2016 NY15

    The following Minor Planet Electronic Circular may be linked-to from your own Web pages, but must not otherwise be redistributed electronically.

    A form allowing access to any MPEC is at the bottom of this page.


    Read MPEC 2016-N52 Read MPEC 2016-N54


    M.P.E.C. 2016-N53                                Issued 2016 July 8, 15:35 UT
    
         The Minor Planet Electronic Circulars contain information on unusual
             minor planets and routine data on comets.  They are published
        on behalf of Division F of the International Astronomical Union by the
              Minor Planet Center, Smithsonian Astrophysical Observatory,
                              Cambridge, MA 02138, U.S.A.
    
                 Prepared using the Tamkin Foundation Computer Network
    
                                  MPC@CFA.HARVARD.EDU
                URL https://www.minorplanetcenter.net/    ISSN 1523-6714
    
                                       2016 NY15
    
    Observations:
         K16N15Y* C2016 07 06.42775 22 23 26.99 -05 15 48.2          19.4 rREN053G45
         K16N15Y  C2016 07 06.43226 22 23 27.47 -05 15 42.0          19.7 rREN053G45
         K16N15Y  C2016 07 06.43775 22 23 27.99 -05 15 33.8          19.7 rREN053G45
         K16N15Y  C2016 07 06.44293 22 23 28.51 -05 15 26.4          19.7 rREN053G45
         K16N15Y  C2016 07 06.44775 22 23 28.98 -05 15 19.6          19.7 rREN053G45
         K16N15Y  C2016 07 06.45293 22 23 29.51 -05 15 12.0          19.4 rREN053G45
         K16N15Y HC2016 07 07.42269 22 25 13.47 -04 51 54.2          20.3 VoEN053691
         K16N15Y HC2016 07 07.43473 22 25 14.66 -04 51 37.1          20.5 VoEN053691
         K16N15Y HC2016 07 07.44680 22 25 15.78 -04 51 19.5          20.1 VoEN053691
         K16N15Y  C2016 07 07.57466 22 25 29.83 -04 47 44.1          19.0 RtEN053474
         K16N15Y  C2016 07 07.57736 22 25 30.08 -04 47 40.5          19.3 RtEN053474
         K16N15Y  C2016 07 07.58007 22 25 30.34 -04 47 36.6          18.7 RtEN053474
         K16N15Y KC2016 07 07.98993 22 26 13.09 -04 38 30.7          19.1 RqEN053104
         K16N15Y KC2016 07 07.99546 22 26 13.60 -04 38 22.9          19.7 RqEN053104
         K16N15Y KC2016 07 08.00208 22 26 14.23 -04 38 13.5          19.9 RqEN053104
         K16N15Y KC2016 07 08.01771 22 26 15.63 -04 37 52.1          19.0 VtEN053595
         K16N15Y KC2016 07 08.03116 22 26 16.94 -04 37 32.8          19.2 VtEN053595
         K16N15Y HC2016 07 08.39500 22 26 54.04 -04 28 54.4          20.0 VoEN053691
         K16N15Y HC2016 07 08.40763 22 26 55.18 -04 28 37.1          19.9 VoEN053691
         K16N15Y HC2016 07 08.42040 22 26 56.45 -04 28 18.6                oEN053691
         K16N15Y KC2016 07 08.54051 22 27 09.15 -04 24 56.9          19.3 RtEN053474
         K16N15Y KC2016 07 08.54262 22 27 09.37 -04 24 53.9          18.8 RtEN053474
         K16N15Y KC2016 07 08.54473 22 27 09.54 -04 24 50.9          19.2 RtEN053474
         K16N15Y KC2016 07 08.54684 22 27 09.75 -04 24 48.0          19.5 RtEN053474
    
    Observer details:
    104 San Marcello Pistoiese.  Observers P. Bacci, M. Maestripieri.  Measurers
        P. Bacci, L. Tesi, G. Fagioli.  0.60-m f/4 reflector + CCD.
    474 Mount John Observatory, Lake Tekapo.  Observers A. C. Gilmore,
        P. M. Kilmartin.  Measurer P. M. Kilmartin.  1.0-m f/7.7 reflector + CCD.
    595 Farra d'Isonzo.  Observer E. Pettarin.  0.61-m f/4.0 reflector + CCD.
    691 Steward Observatory, Kitt Peak.  Observer J. V. Scotti.  0.9-m f/3
        reflector + CCD.
    G45 Space Surveillance Telescope, Atom Site.  Observers M. Blythe, R. Brungard,
        P. Festler, T. McVey, J. Paige, G. Spitz.  Measurers M. Cornell, A. Klein,
        J. Ruprecht, G. Ushomirsky, J. Varey, D. Woods.  3.5-m f/1 reflector + CCD.
    
    Orbital elements:
    2016 NY15                                                Earth MOID = 0.2288 AU
    Epoch 2016 July 31.0 TT = JDT 2457600.5                 MPC
    M   9.07876              (2000.0)            P               Q
    n   0.26347569     Peri.   10.00689     +0.30677719     +0.94961721
    a   2.4097705      Node   277.87998     -0.87765746     +0.25616625
    e   0.4833111      Incl.    3.71302     -0.36824603     +0.18057133
    P   3.74           H   20.0           G   0.15           U   8
    Residuals in seconds of arc
    160706 G45  0.2-  0.2+    160707 691  0.0   0.3+    160708 595  0.1-  0.1+
    160706 G45  0.3+  0.1-    160707 474  0.1-  0.1+    160708 691  0.1-  0.1+
    160706 G45  0.1-  0.1+    160707 474  0.3-  0.1-    160708 691  0.5-  0.3-
    160706 G45  0.0   0.0     160707 474  0.3-  0.1-    160708 691  0.9+  0.3+
    160706 G45  0.2-  0.2-    160707 104  0.6+  0.2-    160708 474  0.2-  0.0
    160706 G45  0.1+  0.1-    160707 104  0.2+  0.2-    160708 474  0.1+  0.0
    160707 691  0.2-  0.0     160708 104  0.0   0.1-    160708 474  0.4-  0.1+
    160707 691  0.4+  0.1-    160708 595  0.4-  0.2-    160708 474  0.2-  0.0
    
    Ephemeris:
    2016 NY15                a,e,i = 2.41, 0.48, 4                   q = 1.2451
    Date    TT    R. A. (2000) Decl.     Delta      r     Elong.  Phase     V
    2016 06 08    21 09 43.9 -17 40 40   0.3782  1.2608   122.8    42.6    20.0
    ...
    2016 06 23    21 53 44.0 -11 03 57   0.3439  1.2457   124.9    42.0    19.8
    ...
    2016 07 01    22 12 42.6 -07 31 33   0.3338  1.2460   126.9    40.7    19.7
    ...
    2016 07 07    22 24 28.4 -05 01 46   0.3293  1.2501   128.9    39.3    19.6
    2016 07 08    22 26 13.1 -04 37 58   0.3288  1.2511   129.3    39.0    19.6
    2016 07 09    22 27 54.1 -04 14 33   0.3284  1.2522   129.7    38.7    19.6
    ...
    2016 07 15    22 36 41.6 -02 02 57   0.3273  1.2606   132.4    36.5    19.6
    ...
    2016 07 23    22 44 56.7 +00 25 01   0.3296  1.2767   136.9    32.9    19.5
    ...
    2016 08 07    22 50 20.4 +03 22 43   0.3460  1.3204   148.0    24.0    19.4
    
    A. U. Tomatic                (C) Copyright 2016 MPC           M.P.E.C. 2016-N53
    

    Read MPEC 2016-N52 Read MPEC 2016-N54


    MPEC number:

    Enter an MPEC number in one of the following forms:

    • 1997-B01 (the full form)
    • J97B01 (the packed version of the full form)
    • B01 (the abbreviated form)